Location: Franzen
(48.6167°N, 15.3833°E)
Time: 10:33:29
(UTC+00:00)

USA 215 - Pass Details

Date: 22 April 2021
Orbit: 1101 x 1107 km, 123.0° (Epoch: 14 May)

Event Time Altitude Azimuth Distance (km) Brightness Sun altitude
Exits shadow 19:34:15 17° 106° (ESE) 2,490 4.6 -14.3°
Maximum altitude 19:39:29 70° 27° (NNE) 1,170 3.4 -15.0°
Drops below altitude 10° 19:45:59 10° 305° (NW) 2,965 6.9 -15.8°
Sets 19:48:28 0° 304° (WNW) 3,925 7.9 -16.1°
